This demonstration page uses our WeatherBlox Daily Observations layout. Learn more.

Left ArrowRight Arrow

Hourly Observations for November 3, 2022

Temp ( °F °C ) Dew Point ( °F °C ) Humidity (%) Winds ( mph kmh ) Pressure ( in mb ) Visibility ( mi km ) Precip ( " mm )
12:53 am 00:53 Clear 59 15 57 13.9 93 93 SSE 16 26 29.91 1013 9 14 0.00 0.00
1:44 am 01:44 Mostly Clear 59 15 58 14.4 96 96 SE 17 28 29.93 1014 8 13 0.00 0.00
1:53 am 01:53 Mostly Cloudy 60 15.6 58 14.4 93 93 SE 20 31 29.89 1012 8 13 0.00 0.00
2:53 am 02:53 Mostly Cloudy 60 15.6 58 14.4 93 93 SE 20 31 29.86 1011 10 16 0.00 0.00
3:53 am 03:53 Cloudy 60 15.6 57 13.9 90 90 SE 15 24 29.84 1011 8 13 0.00 0.00
4:53 am 04:53 Cloudy 59 15 57 13.9 93 93 SE 15 24 29.83 1010 8 13 0.00 0.00
5:41 am 05:41 Partly Cloudy 58 14.4 56 13.3 93 93 SE 14 22 29.88 1012 8 13 0.00 0.00
5:53 am 05:53 Mostly Cloudy 58 14.4 57 13.9 97 97 SE 13 20 29.83 1010 8 13 0.00 0.00
6:53 am 06:53 Cloudy 59 15 57 13.9 93 93 SSE 10 17 29.85 1011 9 14 0.00 0.00
7:53 am 07:53 Cloudy 59 15 57 13.9 93 93 SSE 15 24 29.86 1011 7 11 0.00 0.00
8:53 am 08:53 Cloudy with Mist and Fog 60 15.6 57 13.9 90 90 SE 16 26 29.87 1012 6 10 0.00 0.00
9:53 am 09:53 Partly Cloudy 62 16.7 58 14.4 86 86 SSE 17 28 29.88 1012 9 14 0.00 0.00
10:53 am 10:53 Sunny 67 19.4 57 13.9 71 71 SSE 14 22 29.88 1012 10 16 0.00 0.00
11:53 am 11:53 Sunny 71 21.7 56 13.3 59 59 SSE 14 22 29.85 1011 10 16 0.00 0.00
12:53 pm 12:53 Sunny 75 23.9 53 11.7 46 46 SSE 9 15 29.82 1010 10 16 0.00 0.00
1:53 pm 13:53 Sunny 80 26.7 49 9.4 34 34 SSE 14 22 29.76 1008 10 16 0.00 0.00
2:53 pm 14:53 Sunny 82 27.8 48 8.9 31 31 SSE 16 26 29.72 1006 10 16 0.00 0.00
3:53 pm 15:53 Sunny 84 28.9 45 7.2 26 26 S 10 17 29.69 1005 10 16 0.00 0.00
4:53 pm 16:53 Sunny 84 28.9 47 8.3 27 27 SSE 5 7 29.67 1005 10 16 0.00 0.00
5:53 pm 17:53 Sunny 81 27.2 55 12.8 41 41 ESE 13 20 29.66 1004 10 16 0.00 0.00
6:53 pm 18:53 Sunny 77 25 57 13.9 50 50 ESE 15 24 29.65 1004 10 16 0.00 0.00
7:53 pm 19:53 Clear 73 22.8 57 13.9 57 57 ESE 18 30 29.66 1004 10 16 0.00 0.00
8:53 pm 20:53 Clear 70 21.1 59 15 68 68 SE 24 39 29.67 1005 10 16 0.00 0.00
9:53 pm 21:53 Clear 67 19.4 60 15.6 79 79 SE 22 35 29.68 1005 10 16 0.00 0.00
10:53 pm 22:53 Clear 66 18.9 61 16.1 84 84 SSE 18 30 29.67 1005 9 14 0.00 0.00
11:53 pm 23:53 Clear 66 18.9 61 16.1 84 84 SSW 10 17 29.70 1006 8 13 0.00 0.00

Powered by AerisWeather